| time (UTC) | temp F | wind direction | speed MPH | gust MPH | rain 1hr in | rain 24hr in | rain mn in | humidity % | barometer mb |
| 20260904221550 | 75 | 351 | 0.0 | 5.0 | 0.00 | 0.00 | 0.00 | 67 | 1007.7 |
| 20260904221045 | 75 | 302 | 2.0 | 5.0 | 0.00 | 0.00 | 0.00 | 65 | 1007.6 |
| 20260904220543 | 75 | 60 | 0.0 | 2.0 | 0.00 | 0.00 | 0.00 | 67 | 1007.6 |
| 20260904220059 | 76 | 132 | 0.0 | 4.0 | 0.00 | 0.00 | 0.00 | 66 | 1007.6 |
| 20260904215542 | 76 | 160 | 0.0 | 4.0 | 0.00 | 0.00 | 0.00 | 65 | 1007.6 |
| 20260904215046 | 76 | 238 | 0.0 | 2.0 | 0.00 | 0.00 | 0.00 | 68 | 1007.6 |
| 20260904214543 | 77 | 224 | 0.0 | 2.0 | 0.00 | 0.00 | 0.00 | 68 | 1007.5 |
| 20260904214042 | 77 | 179 | 0.0 | 4.0 | 0.00 | 0.00 | 0.00 | 67 | 1007.5 |
| 20260904213542 | 77 | 57 | 0.0 | 4.0 | 0.00 | 0.00 | 0.00 | 67 | 1007.4 |
| 20260904213042 | 76 | 151 | 0.0 | 2.0 | 0.00 | 0.00 | 0.00 | 68 | 1007.5 |
| 20260904212542 | 76 | 296 | 0.0 | 2.0 | 0.00 | 0.00 | 0.00 | 68 | 1007.5 |
| 20260904212043 | 76 | 279 | 0.0 | 4.0 | 0.00 | 0.00 | 0.00 | 69 | 1007.4 |
| 20260904211550 | 76 | 137 | 0.0 | 5.0 | 0.00 | 0.00 | 0.00 | 69 | 1007.5 |
| 20260904211041 | 76 | 280 | 0.0 | 7.0 | 0.00 | 0.00 | 0.00 | 66 | 1007.6 |
| 20260904210541 | 76 | 290 | 1.0 | 2.0 | 0.00 | 0.00 | 0.00 | 68 | 1007.6 |
| 20260904210046 | 76 | 74 | 0.0 | 4.0 | 0.00 | 0.00 | 0.00 | 68 | 1007.5 |
| 20260904205541 | 76 | 80 | 2.0 | 4.0 | 0.00 | 0.00 | 0.00 | 68 | 1007.5 |
| 20260904205042 | 76 | 168 | 0.0 | 1.0 | 0.00 | 0.00 | 0.00 | 66 | 1007.5 |
| 20260904204539 | 76 | 126 | 0.0 | 1.0 | 0.00 | 0.00 | 0.00 | 64 | 1007.4 |
| 20260904204039 | 77 | 116 | 0.0 | 2.0 | 0.00 | 0.00 | 0.00 | 65 | 1007.5 |
| 20260904203539 | 77 | 232 | 0.0 | 8.0 | 0.00 | 0.00 | 0.00 | 63 | 1007.5 |
| 20260904203039 | 77 | 80 | 0.0 | 8.0 | 0.00 | 0.00 | 0.00 | 63 | 1007.5 |
| 20260904202539 | 77 | 76 | 2.0 | 7.0 | 0.00 | 0.00 | 0.00 | 63 | 1007.5 |
| 20260904202038 | 77 | 140 | 0.0 | 4.0 | 0.00 | 0.00 | 0.00 | 63 | 1007.5 |
| 20260904201539 | 78 | 239 | 1.0 | 7.0 | 0.00 | 0.00 | 0.00 | 65 | 1007.6 |
| 20260904201038 | 78 | 36 | 2.0 | 7.0 | 0.00 | 0.00 | 0.00 | 65 | 1007.6 |
| 20260904200538 | 78 | 5 | 2.0 | 5.0 | 0.00 | 0.00 | 0.00 | 62 | 1007.6 |
| 20260904200045 | 78 | 81 | 1.0 | 5.0 | 0.00 | 0.00 | 0.00 | 63 | 1007.7 |
| 20260904195539 | 78 | 22 | 1.0 | 4.0 | 0.00 | 0.00 | 0.00 | 62 | 1007.6 |
| 20260904195038 | 78 | 52 | 0.0 | 4.0 | 0.00 | 0.00 | 0.00 | 62 | 1007.7 |
| 20260904194620 | 79 | 328 | 1.0 | 5.0 | 0.00 | 0.00 | 0.00 | 60 | 1007.7 |
| 20260904194037 | 79 | 64 | 0.0 | 5.0 | 0.00 | 0.00 | 0.00 | 59 | 1007.7 |
| 20260904193537 | 79 | 68 | 2.0 | 7.0 | 0.00 | 0.00 | 0.00 | 58 | 1007.6 |
| 20260904193041 | 79 | 112 | 1.0 | 7.0 | 0.00 | 0.00 | 0.00 | 59 | 1007.6 |
| 20260904192536 | 79 | 272 | 1.0 | 8.0 | 0.00 | 0.00 | 0.00 | 58 | 1007.6 |
| 20260904192036 | 79 | 331 | 2.0 | 11.0 | 0.00 | 0.00 | 0.00 | 59 | 1007.5 |
| 20260904191536 | 80 | 288 | 2.0 | 11.0 | 0.00 | 0.00 | 0.00 | 55 | 1007.6 |
| 20260904191038 | 81 | 360 | 1.0 | 9.0 | 0.00 | 0.00 | 0.00 | 54 | 1007.5 |
| 20260904190536 | 81 | 27 | 2.0 | 7.0 | 0.00 | 0.00 | 0.00 | 52 | 1007.5 |
| 20260904190036 | 81 | 44 | 1.0 | 8.0 | 0.00 | 0.00 | 0.00 | 51 | 1007.3 |
| 20260904185535 | 81 | 277 | 1.0 | 8.0 | 0.00 | 0.00 | 0.00 | 51 | 1007.5 |
| 20260904185035 | 81 | 324 | 2.0 | 6.0 | 0.00 | 0.00 | 0.00 | 53 | 1007.5 |
| 20260904184534 | 81 | 360 | 2.0 | 6.0 | 0.00 | 0.00 | 0.00 | 54 | 1007.5 |
| 20260904184034 | 81 | 18 | 2.0 | 7.0 | 0.00 | 0.00 | 0.00 | 54 | 1007.6 |
| 20260904183533 | 81 | 349 | 1.0 | 8.0 | 0.00 | 0.00 | 0.00 | 51 | 1007.7 |
| 20260904183032 | 81 | 134 | 1.0 | 8.0 | 0.00 | 0.00 | 0.00 | 53 | 1007.7 |
| 20260904182536 | 82 | 217 | 1.0 | 7.0 | 0.00 | 0.00 | 0.00 | 55 | 1007.6 |
| 20260904182031 | 82 | 295 | 2.0 | 9.0 | 0.00 | 0.00 | 0.00 | 48 | 1007.8 |
| 20260904181531 | 82 | 134 | 1.0 | 9.0 | 0.00 | 0.00 | 0.00 | 51 | 1007.8 |
| 20260904181030 | 83 | 128 | 3.0 | 8.0 | 0.00 | 0.00 | 0.00 | 56 | 1007.8 |
| 20260904180532 | 83 | 355 | 2.0 | 8.0 | 0.00 | 0.00 | 0.00 | 55 | 1007.7 |
| 20260904180030 | 83 | 198 | 2.0 | 8.0 | 0.00 | 0.00 | 0.00 | 51 | 1007.8 |
| 20260904175530 | 83 | 146 | 2.0 | 8.0 | 0.00 | 0.00 | 0.00 | 52 | 1007.8 |
| 20260904175028 | 82 | 5 | 1.0 | 5.0 | 0.00 | 0.00 | 0.00 | 56 | 1007.7 |
| 20260904174527 | 81 | 324 | 1.0 | 6.0 | 0.00 | 0.00 | 0.00 | 54 | 1007.8 |
| 20260904174027 | 81 | 336 | 2.0 | 7.0 | 0.00 | 0.00 | 0.00 | 56 | 1007.9 |
| 20260904173526 | 81 | 48 | 2.0 | 11.0 | 0.00 | 0.00 | 0.00 | 60 | 1007.8 |
| 20260904173035 | 81 | 342 | 2.0 | 11.0 | 0.00 | 0.00 | 0.00 | 55 | 1007.9 |
| 20260904172526 | 81 | 198 | 1.0 | 7.0 | 0.00 | 0.00 | 0.00 | 63 | 1007.8 |
| 20260904172026 | 80 | 121 | 1.0 | 7.0 | 0.00 | 0.00 | 0.00 | 60 | 1007.9 |
| 20260904171537 | 81 | 213 | 1.0 | 7.0 | 0.00 | 0.00 | 0.00 | 58 | 1007.9 |
| 20260904171025 | 81 | 19 | 1.0 | 7.0 | 0.00 | 0.00 | 0.00 | 57 | 1007.9 |
| 20260904170527 | 81 | 71 | 1.0 | 6.0 | 0.00 | 0.00 | 0.00 | 57 | 1008.1 |
| 20260904170025 | 82 | 44 | 3.0 | 8.0 | 0.00 | 0.00 | 0.00 | 58 | 1008.1 |
| 20260904165524 | 82 | 5 | 1.0 | 10.0 | 0.00 | 0.00 | 0.00 | 58 | 1008.2 |
| 20260904165022 | 81 | 105 | 4.0 | 8.0 | 0.00 | 0.00 | 0.00 | 60 | 1008.3 |
| 20260904164527 | 81 | 15 | 1.0 | 7.0 | 0.00 | 0.00 | 0.00 | 56 | 1008.2 |
| 20260904164027 | 82 | 126 | 2.0 | 5.0 | 0.00 | 0.00 | 0.00 | 60 | 1008.2 |
| 20260904163522 | 82 | 64 | 2.0 | 6.0 | 0.00 | 0.00 | 0.00 | 55 | 1008.2 |
| 20260904163021 | 82 | 120 | 3.0 | 11.0 | 0.00 | 0.00 | 0.00 | 61 | 1008.2 |
| 20260904162521 | 82 | 5 | 4.0 | 11.0 | 0.00 | 0.00 | 0.00 | 61 | 1008.2 |
| 20260904162024 | 81 | 182 | 2.0 | 11.0 | 0.00 | 0.00 | 0.00 | 58 | 1008.1 |
| 20260904161521 | 82 | 66 | 2.0 | 9.0 | 0.00 | 0.00 | 0.00 | 60 | 1008.3 |
| 20260904161018 | 81 | 69 | 4.0 | 9.0 | 0.00 | 0.00 | 0.00 | 63 | 1008.2 |
| 20260904160518 | 81 | 337 | 2.0 | 9.0 | 0.00 | 0.00 | 0.00 | 57 | 1008.3 |
| 20260904160018 | 80 | 355 | 4.0 | 9.0 | 0.00 | 0.00 | 0.00 | 63 | 1008.4 |
| 20260904155515 | 79 | 227 | 0.0 | 7.0 | 0.00 | 0.00 | 0.00 | 63 | 1008.5 |
| 20260904155014 | 80 | 93 | 2.0 | 9.0 | 0.00 | 0.00 | 0.00 | 62 | 1008.7 |
| 20260904154513 | 80 | 127 | 2.0 | 5.0 | 0.00 | 0.00 | 0.00 | 63 | 1008.7 |
| 20260904154012 | 80 | 34 | 1.0 | 5.0 | 0.00 | 0.00 | 0.00 | 66 | 1008.7 |
| 20260904153511 | 79 | 215 | 1.0 | 8.0 | 0.00 | 0.00 | 0.00 | 68 | 1008.6 |
| 20260904153020 | 79 | 348 | 4.0 | 8.0 | 0.00 | 0.00 | 0.00 | 69 | 1008.6 |
| 20260904152508 | 79 | 17 | 1.0 | 8.0 | 0.00 | 0.00 | 0.00 | 69 | 1008.8 |
| 20260904152007 | 79 | 49 | 4.0 | 8.0 | 0.00 | 0.00 | 0.00 | 70 | 1008.8 |
| 20260904151506 | 78 | 325 | 2.0 | 9.0 | 0.00 | 0.00 | 0.00 | 69 | 1008.8 |
| 20260904151005 | 78 | 107 | 4.0 | 9.0 | 0.00 | 0.00 | 0.00 | 72 | 1008.8 |
| 20260904150503 | 78 | 19 | 3.0 | 7.0 | 0.00 | 0.00 | 0.00 | 72 | 1008.8 |
| 20260904150002 | 77 | 67 | 1.0 | 6.0 | 0.00 | 0.00 | 0.00 | 71 | 1008.9 |
| 20260904145501 | 77 | 59 | 1.0 | 3.0 | 0.00 | 0.00 | 0.00 | 70 | 1008.8 |
| 20260904145100 | 77 | 5 | 2.0 | 8.0 | 0.00 | 0.00 | 0.00 | 71 | 1008.8 |
| 20260904144558 | 77 | 151 | 4.0 | 8.0 | 0.00 | 0.00 | 0.00 | 74 | 1008.9 |
| 20260904144100 | 76 | 327 | 2.0 | 6.0 | 0.00 | 0.00 | 0.00 | 76 | 1008.9 |
| 20260904143558 | 76 | 57 | 2.0 | 6.0 | 0.00 | 0.00 | 0.00 | 75 | 1008.9 |
| 20260904143055 | 75 | 106 | 0.0 | 6.0 | 0.00 | 0.00 | 0.00 | 75 | 1009.0 |
| 20260904142555 | 75 | 38 | 1.0 | 7.0 | 0.00 | 0.00 | 0.00 | 77 | 1009.1 |
| 20260904142051 | 74 | 43 | 1.0 | 7.0 | 0.00 | 0.00 | 0.00 | 80 | 1009.1 |
| 20260904141616 | 74 | 5 | 2.0 | 7.0 | 0.00 | 0.00 | 0.00 | 81 | 1009.1 |
| 20260904141049 | 74 | 199 | 1.0 | 4.0 | 0.00 | 0.00 | 0.00 | 84 | 1009.1 |
| 20260904140547 | 73 | 121 | 1.0 | 4.0 | 0.00 | 0.00 | 0.00 | 85 | 1009.2 |
| 20260904140100 | 73 | 179 | 0.0 | 5.0 | 0.00 | 0.00 | 0.00 | 87 | 1009.3 |
| 20260904135545 | 72 | 84 | 1.0 | 5.0 | 0.00 | 0.00 | 0.00 | 88 | 1009.3 |
| 20260904135045 | 72 | 207 | 0.0 | 2.0 | 0.00 | 0.00 | 0.00 | 89 | 1009.3 |
| 20260904134546 | 71 | 194 | 0.0 | 2.0 | 0.00 | 0.00 | 0.00 | 90 | 1009.3 |
| 20260904134040 | 70 | 92 | 0.0 | 5.0 | 0.00 | 0.00 | 0.00 | 91 | 1009.3 |
| 20260904133539 | 70 | 153 | 0.0 | 5.0 | 0.00 | 0.00 | 0.00 | 93 | 1009.3 |
| 20260904133048 | 69 | 72 | 0.0 | 4.0 | 0.00 | 0.00 | 0.00 | 94 | 1009.3 |
| 20260904132536 | 69 | 131 | 0.0 | 4.0 | 0.00 | 0.00 | 0.00 | 95 | 1009.3 |
| 20260904132034 | 69 | 124 | 0.0 | 2.0 | 0.00 | 0.00 | 0.00 | 96 | 1009.4 |
| 20260904131533 | 68 | 109 | 0.0 | 4.0 | 0.00 | 0.00 | 0.00 | 97 | 1009.4 |
| 20260904131034 | 68 | 91 | 0.0 | 4.0 | 0.00 | 0.00 | 0.00 | 97 | 1009.4 |
| 20260904130531 | 67 | 113 | 0.0 | 4.0 | 0.00 | 0.00 | 0.00 | 97 | 1009.4 |
| 20260904130030 | 67 | 59 | 0.0 | 4.0 | 0.00 | 0.00 | 0.00 | 98 | 1009.4 |
| 20260904125530 | 66 | 74 | 0.0 | 3.0 | 0.00 | 0.00 | 0.00 | 98 | 1009.4 |
| 20260904125032 | 66 | 150 | 0.0 | 0.0 | 0.00 | 0.00 | 0.00 | 97 | 1009.4 |
| 20260904124528 | 66 | 125 | 0.0 | 0.0 | 0.00 | 0.00 | 0.00 | 98 | 1009.4 |
| 20260904124029 | 66 | 125 | 0.0 | 4.0 | 0.00 | 0.00 | 0.00 | 98 | 1009.4 |
| 20260904123529 | 66 | 125 | 0.0 | 4.0 | 0.00 | 0.00 | 0.00 | 98 | 1009.4 |
| 20260904123026 | 65 | 69 | 0.0 | 2.0 | 0.00 | 0.00 | 0.00 | 97 | 1009.3 |
| 20260904122526 | 65 | 88 | 0.0 | 1.0 | 0.00 | 0.00 | 0.00 | 97 | 1009.4 |
| 20260904122026 | 65 | 158 | 0.0 | 2.0 | 0.00 | 0.00 | 0.00 | 97 | 1009.4 |
| 20260904121534 | 65 | 96 | 0.0 | 2.0 | 0.00 | 0.00 | 0.00 | 97 | 1009.4 |
| 20260904121026 | 65 | 100 | 0.0 | 5.0 | 0.00 | 0.00 | 0.00 | 97 | 1009.3 |
| 20260904120526 | 65 | 85 | 0.0 | 5.0 | 0.00 | 0.00 | 0.00 | 97 | 1009.3 |
| 20260904120024 | 65 | 349 | 0.0 | 3.0 | 0.00 | 0.00 | 0.00 | 97 | 1009.2 |
| 20260904115524 | 64 | 9 | 0.0 | 0.0 | 0.00 | 0.00 | 0.00 | 97 | 1009.3 |
| 20260904115023 | 64 | 88 | 0.0 | 2.0 | 0.00 | 0.00 | 0.00 | 97 | 1009.4 |
| 20260904114522 | 65 | 93 | 0.0 | 2.0 | 0.00 | 0.00 | 0.00 | 97 | 1009.3 |
| 20260904114023 | 65 | 65 | 0.0 | 0.0 | 0.00 | 0.00 | 0.00 | 97 | 1009.4 |
| 20260904113521 | 65 | 56 | 0.0 | 0.0 | 0.00 | 0.00 | 0.00 | 97 | 1009.3 |
| 20260904113032 | 64 | 56 | 0.0 | 0.0 | 0.00 | 0.00 | 0.00 | 97 | 1009.4 |
| 20260904112520 | 65 | 56 | 0.0 | 0.0 | 0.00 | 0.00 | 0.00 | 97 | 1009.4 |
| 20260904112023 | 65 | 56 | 0.0 | 0.0 | 0.00 | 0.00 | 0.00 | 97 | 1009.3 |
| 20260904111524 | 64 | 61 | 0.0 | 0.0 | 0.00 | 0.00 | 0.00 | 97 | 1009.3 |
| 20260904111027 | 64 | 49 | 0.0 | 0.0 | 0.00 | 0.00 | 0.00 | 97 | 1009.3 |
| 20260904110520 | 64 | 39 | 0.0 | 0.0 | 0.00 | 0.00 | 0.00 | 97 | 1009.2 |
| 20260904110018 | 64 | 180 | 0.0 | 0.0 | 0.00 | 0.01 | 0.00 | 97 | 1009.3 |
| 20260904105518 | 64 | 180 | 0.0 | 1.0 | 0.00 | 0.01 | 0.00 | 97 | 1009.2 |
| 20260904105017 | 65 | 171 | 0.0 | 1.0 | 0.00 | 0.01 | 0.00 | 97 | 1009.2 |
| 20260904104515 | 65 | 76 | 0.0 | 4.0 | 0.00 | 0.01 | 0.00 | 97 | 1009.1 |
| 20260904104015 | 65 | 75 | 0.0 | 4.0 | 0.00 | 0.01 | 0.00 | 97 | 1009.0 |
| 20260904103514 | 65 | 69 | 1.0 | 4.0 | 0.00 | 0.01 | 0.00 | 97 | 1009.0 |
| 20260904103014 | 65 | 59 | 0.0 | 2.0 | 0.00 | 0.01 | 0.00 | 97 | 1009.0 |
| 20260904102514 | 65 | 336 | 0.0 | 0.0 | 0.00 | 0.01 | 0.00 | 97 | 1009.0 |
| 20260904102013 | 65 | 336 | 0.0 | 1.0 | 0.00 | 0.01 | 0.00 | 97 | 1008.9 |
| 20260904101513 | 65 | 336 | 0.0 | 1.0 | 0.00 | 0.01 | 0.00 | 97 | 1008.9 |
| 20260904101013 | 65 | 61 | 0.0 | 0.0 | 0.00 | 0.01 | 0.00 | 97 | 1008.9 |
| 20260904100512 | 65 | 61 | 0.0 | 0.0 | 0.00 | 0.01 | 0.00 | 97 | 1008.9 |
| 20260904100012 | 65 | 85 | 0.0 | 0.0 | 0.00 | 0.03 | 0.00 | 97 | 1008.8 |
| 20260904095516 | 66 | 85 | 0.0 | 0.0 | 0.00 | 0.03 | 0.00 | 97 | 1008.8 |
| 20260904095012 | 66 | 85 | 0.0 | 0.0 | 0.00 | 0.03 | 0.00 | 97 | 1008.8 |
| 20260904094510 | 66 | 85 | 0.0 | 0.0 | 0.00 | 0.03 | 0.00 | 97 | 1008.7 |
| 20260904094010 | 66 | 97 | 0.0 | 0.0 | 0.00 | 0.03 | 0.00 | 97 | 1008.8 |
| 20260904093512 | 66 | 97 | 0.0 | 0.0 | 0.00 | 0.03 | 0.00 | 97 | 1008.9 |
| 20260904093111 | 66 | 97 | 0.0 | 1.0 | 0.00 | 0.03 | 0.00 | 97 | 1008.8 |
| 20260904092514 | 66 | 97 | 0.0 | 1.0 | 0.00 | 0.03 | 0.00 | 97 | 1008.8 |
| 20260904092010 | 66 | 96 | 0.0 | 0.0 | 0.00 | 0.03 | 0.00 | 97 | 1008.8 |
| 20260904091510 | 66 | 96 | 0.0 | 0.0 | 0.00 | 0.03 | 0.00 | 97 | 1008.8 |
| 20260904091011 | 66 | 96 | 0.0 | 0.0 | 0.00 | 0.03 | 0.00 | 97 | 1008.7 |
| 20260904090510 | 66 | 96 | 0.0 | 0.0 | 0.00 | 0.03 | 0.00 | 97 | 1008.7 |
| 20260904090009 | 66 | 96 | 0.0 | 2.0 | 0.00 | 0.04 | 0.00 | 97 | 1008.6 |
| 20260904085509 | 66 | 50 | 0.0 | 2.0 | 0.00 | 0.04 | 0.00 | 97 | 1008.6 |
| 20260904085009 | 66 | 94 | 0.0 | 0.0 | 0.00 | 0.04 | 0.00 | 97 | 1008.7 |
| 20260904084507 | 66 | 94 | 0.0 | 0.0 | 0.00 | 0.04 | 0.00 | 97 | 1008.7 |
| 20260904084006 | 66 | 94 | 0.0 | 0.0 | 0.00 | 0.04 | 0.00 | 97 | 1008.8 |
| 20260904083506 | 66 | 94 | 0.0 | 0.0 | 0.00 | 0.04 | 0.00 | 97 | 1008.7 |
| 20260904083009 | 66 | 94 | 0.0 | 0.0 | 0.00 | 0.04 | 0.00 | 97 | 1008.8 |
| 20260904082506 | 66 | 94 | 0.0 | 0.0 | 0.00 | 0.04 | 0.00 | 97 | 1008.9 |
| 20260904082004 | 66 | 94 | 0.0 | 0.0 | 0.00 | 0.04 | 0.00 | 97 | 1008.9 |
| 20260904081513 | 66 | 94 | 0.0 | 0.0 | 0.00 | 0.04 | 0.00 | 97 | 1009.0 |
| 20260904081005 | 66 | 94 | 0.0 | 0.0 | 0.00 | 0.04 | 0.00 | 97 | 1009.0 |
| 20260904080504 | 66 | 94 | 0.0 | 0.0 | 0.00 | 0.04 | 0.00 | 97 | 1009.1 |
| 20260904080004 | 66 | 94 | 0.0 | 0.0 | 0.00 | 0.04 | 0.00 | 97 | 1009.1 |
| 20260904075503 | 66 | 94 | 0.0 | 0.0 | 0.00 | 0.04 | 0.00 | 97 | 1009.0 |
| 20260904075004 | 66 | 94 | 0.0 | 0.0 | 0.00 | 0.04 | 0.00 | 97 | 1009.0 |
| 20260904074504 | 66 | 94 | 0.0 | 0.0 | 0.00 | 0.04 | 0.00 | 97 | 1009.0 |
| 20260904074003 | 66 | 94 | 0.0 | 0.0 | 0.00 | 0.04 | 0.00 | 97 | 1009.0 |
| 20260904073503 | 66 | 94 | 0.0 | 0.0 | 0.00 | 0.04 | 0.00 | 97 | 1008.9 |
| 20260904073001 | 66 | 94 | 0.0 | 0.0 | 0.00 | 0.04 | 0.00 | 97 | 1009.0 |
| 20260904072502 | 66 | 94 | 0.0 | 0.0 | 0.00 | 0.04 | 0.00 | 97 | 1009.1 |
| 20260904072101 | 66 | 94 | 0.0 | 0.0 | 0.00 | 0.04 | 0.00 | 97 | 1009.2 |
| 20260904071601 | 66 | 94 | 0.0 | 0.0 | 0.00 | 0.04 | 0.00 | 97 | 1009.2 |
| 20260904071100 | 66 | 94 | 0.0 | 0.0 | 0.00 | 0.04 | 0.00 | 97 | 1009.2 |
| 20260904070600 | 67 | 94 | 0.0 | 0.0 | 0.00 | 0.04 | 0.00 | 97 | 1009.2 |
| 20260904065559 | 67 | 94 | 0.0 | 0.0 | 0.00 | 0.04 | 0.00 | 97 | 1009.1 |
| 20260904065100 | 67 | 94 | 0.0 | 0.0 | 0.00 | 0.04 | 0.00 | 97 | 1009.1 |
| 20260904064619 | 67 | 94 | 0.0 | 0.0 | 0.00 | 0.04 | 0.00 | 97 | 1009.3 |
| 20260904064100 | 67 | 94 | 0.0 | 0.0 | 0.00 | 0.04 | 0.00 | 97 | 1009.3 |
| 20260904063557 | 67 | 94 | 0.0 | 0.0 | 0.00 | 0.04 | 0.00 | 97 | 1009.4 |
| 20260904063057 | 67 | 94 | 0.0 | 0.0 | 0.00 | 0.04 | 0.00 | 97 | 1009.3 |
| 20260904062559 | 67 | 94 | 0.0 | 0.0 | 0.00 | 0.04 | 0.00 | 97 | 1009.2 |
| 20260904062056 | 67 | 94 | 0.0 | 0.0 | 0.00 | 0.04 | 0.00 | 97 | 1009.3 |
| 20260904061555 | 67 | 94 | 0.0 | 0.0 | 0.00 | 0.04 | 0.00 | 97 | 1009.4 |
| 20260904061058 | 67 | 94 | 0.0 | 0.0 | 0.00 | 0.04 | 0.00 | 97 | 1009.5 |
| 20260904060554 | 67 | 94 | 0.0 | 0.0 | 0.00 | 0.04 | 0.00 | 97 | 1009.7 |
| 20260904060053 | 67 | 94 | 0.0 | 0.0 | 0.00 | 0.04 | 0.00 | 97 | 1009.8 |
| 20260904055553 | 67 | 94 | 0.0 | 0.0 | 0.00 | 0.04 | 0.00 | 97 | 1009.8 |
| 20260904055054 | 67 | 94 | 0.0 | 0.0 | 0.00 | 0.04 | 0.00 | 97 | 1009.9 |
| 20260904054551 | 67 | 94 | 0.0 | 0.0 | 0.00 | 0.04 | 0.00 | 97 | 1010.0 |
| 20260904054054 | 67 | 94 | 0.0 | 0.0 | 0.00 | 0.04 | 0.00 | 97 | 1010.0 |
| 20260904053550 | 67 | 94 | 0.0 | 0.0 | 0.00 | 0.04 | 0.00 | 97 | 1010.0 |
| 20260904053054 | 67 | 94 | 0.0 | 0.0 | 0.00 | 0.04 | 0.00 | 97 | 1010.1 |
| 20260904052553 | 67 | 94 | 0.0 | 0.0 | 0.00 | 0.04 | 0.00 | 97 | 1010.0 |
| 20260904052049 | 67 | 94 | 0.0 | 0.0 | 0.00 | 0.04 | 0.00 | 97 | 1010.1 |
| 20260904051549 | 67 | 94 | 0.0 | 0.0 | 0.00 | 0.04 | 0.00 | 97 | 1010.2 |
| 20260904051048 | 67 | 94 | 0.0 | 0.0 | 0.00 | 0.04 | 0.00 | 97 | 1010.3 |
| 20260904050548 | 67 | 92 | 0.0 | 0.0 | 0.00 | 0.04 | 0.00 | 97 | 1010.3 |
| 20260904050057 | 67 | 92 | 0.0 | 0.0 | 0.00 | 0.04 | 0.00 | 97 | 1010.2 |
| 20260904045548 | 67 | 92 | 0.0 | 0.0 | 0.00 | 0.04 | 0.00 | 97 | 1010.1 |
| 20260904045047 | 67 | 92 | 0.0 | 0.0 | 0.00 | 0.04 | 0.00 | 96 | 1010.3 |
| 20260904044555 | 67 | 92 | 0.0 | 0.0 | 0.00 | 0.04 | 0.00 | 96 | 1010.2 |
| 20260904044047 | 67 | 92 | 0.0 | 0.0 | 0.00 | 0.04 | 0.00 | 96 | 1010.3 |
| 20260904043545 | 67 | 78 | 0.0 | 0.0 | 0.00 | 0.04 | 0.00 | 96 | 1010.2 |
| 20260904043046 | 67 | 78 | 0.0 | 0.0 | 0.00 | 0.04 | 0.00 | 96 | 1010.3 |
| 20260904042545 | 67 | 78 | 0.0 | 0.0 | 0.00 | 0.04 | 0.00 | 96 | 1010.3 |
| 20260904042045 | 67 | 78 | 0.0 | 0.0 | 0.00 | 0.04 | 0.00 | 96 | 1010.3 |
| 20260904041548 | 67 | 78 | 0.0 | 0.0 | 0.00 | 0.04 | 0.00 | 96 | 1010.5 |
| 20260904041042 | 66 | 78 | 0.0 | 0.0 | 0.00 | 0.04 | 0.00 | 96 | 1010.5 |
| 20260904040542 | 66 | 78 | 0.0 | 0.0 | 0.00 | 0.04 | 0.00 | 96 | 1010.5 |
| 20260904040042 | 66 | 84 | 0.0 | 1.0 | 0.00 | 0.04 | 0.04 | 96 | 1010.5 |
| 20260904035542 | 66 | 84 | 0.0 | 1.0 | 0.00 | 0.04 | 0.04 | 96 | 1010.6 |
| 20260904035041 | 66 | 86 | 0.0 | 0.0 | 0.00 | 0.04 | 0.04 | 96 | 1010.6 |
| 20260904034547 | 66 | 86 | 0.0 | 0.0 | 0.00 | 0.04 | 0.04 | 96 | 1010.7 |
| 20260904034041 | 66 | 86 | 0.0 | 0.0 | 0.00 | 0.04 | 0.04 | 96 | 1010.8 |
| 20260904033540 | 66 | 86 | 0.0 | 0.0 | 0.00 | 0.04 | 0.04 | 96 | 1010.7 |
| 20260904033041 | 66 | 86 | 0.0 | 0.0 | 0.00 | 0.04 | 0.04 | 96 | 1010.7 |
| 20260904032543 | 66 | 86 | 0.0 | 0.0 | 0.00 | 0.04 | 0.04 | 96 | 1010.6 |
| 20260904032040 | 66 | 86 | 0.0 | 0.0 | 0.00 | 0.04 | 0.04 | 96 | 1010.6 |
| 20260904031543 | 66 | 86 | 0.0 | 0.0 | 0.00 | 0.04 | 0.04 | 96 | 1010.8 |
| 20260904031039 | 66 | 86 | 0.0 | 0.0 | 0.00 | 0.04 | 0.04 | 96 | 1010.8 |
| 20260904030539 | 66 | 86 | 0.0 | 1.0 | 0.00 | 0.04 | 0.04 | 96 | 1010.9 |
| 20260904030039 | 66 | 86 | 0.0 | 2.0 | 0.00 | 0.04 | 0.04 | 96 | 1010.8 |
| 20260904025541 | 66 | 86 | 0.0 | 2.0 | 0.00 | 0.04 | 0.04 | 96 | 1010.9 |
| 20260904025039 | 67 | 105 | 0.0 | 0.0 | 0.00 | 0.04 | 0.04 | 96 | 1010.8 |
| 20260904024541 | 67 | 105 | 0.0 | 0.0 | 0.00 | 0.04 | 0.04 | 96 | 1010.6 |
| 20260904024037 | 67 | 82 | 0.0 | 0.0 | 0.00 | 0.04 | 0.04 | 96 | 1010.7 |
| 20260904023541 | 67 | 82 | 0.0 | 0.0 | 0.00 | 0.04 | 0.04 | 95 | 1010.7 |
| 20260904023038 | 67 | 82 | 0.0 | 0.0 | 0.00 | 0.04 | 0.04 | 95 | 1010.8 |
| 20260904022538 | 67 | 194 | 0.0 | 0.0 | 0.00 | 0.04 | 0.04 | 95 | 1010.9 |
| 20260904022039 | 67 | 194 | 0.0 | 0.0 | 0.00 | 0.04 | 0.04 | 95 | 1010.8 |
| 20260904021537 | 67 | 194 | 0.0 | 0.0 | 0.00 | 0.04 | 0.04 | 96 | 1010.9 |
| 20260904021037 | 67 | 194 | 0.0 | 0.0 | 0.00 | 0.04 | 0.04 | 95 | 1010.8 |
| 20260904020537 | 67 | 194 | 0.0 | 0.0 | 0.00 | 0.04 | 0.04 | 95 | 1010.9 |
| 20260904020045 | 67 | 194 | 0.0 | 0.0 | 0.00 | 0.04 | 0.04 | 95 | 1010.9 |
| 20260904015536 | 68 | 194 | 0.0 | 0.0 | 0.00 | 0.04 | 0.04 | 95 | 1011.0 |
| 20260904015037 | 68 | 194 | 0.0 | 0.0 | 0.00 | 0.04 | 0.04 | 95 | 1011.1 |
| 20260904014539 | 68 | 194 | 0.0 | 0.0 | 0.00 | 0.04 | 0.04 | 95 | 1011.1 |
| 20260904014037 | 68 | 194 | 0.0 | 0.0 | 0.00 | 0.04 | 0.04 | 95 | 1011.1 |
| 20260904013536 | 68 | 194 | 0.0 | 0.0 | 0.00 | 0.04 | 0.04 | 95 | 1011.1 |
| 20260904013038 | 68 | 194 | 0.0 | 0.0 | 0.00 | 0.04 | 0.04 | 95 | 1011.1 |
| 20260904012536 | 68 | 194 | 0.0 | 0.0 | 0.00 | 0.04 | 0.04 | 95 | 1011.1 |
| 20260904012039 | 68 | 194 | 0.0 | 1.0 | 0.00 | 0.04 | 0.04 | 95 | 1011.0 |
| 20260904011535 | 68 | 194 | 0.0 | 1.0 | 0.00 | 0.04 | 0.04 | 95 | 1011.1 |
| 20260904011037 | 68 | 129 | 0.0 | 0.0 | 0.00 | 0.04 | 0.04 | 95 | 1011.1 |
| 20260904010538 | 68 | 128 | 0.0 | 0.0 | 0.00 | 0.04 | 0.04 | 95 | 1011.1 |
| 20260904010041 | 68 | 129 | 0.0 | 0.0 | 0.00 | 0.04 | 0.04 | 95 | 1011.1 |
| 20260904005534 | 68 | 128 | 0.0 | 0.0 | 0.00 | 0.04 | 0.04 | 95 | 1011.0 |
| 20260904005035 | 68 | 128 | 0.0 | 0.0 | 0.00 | 0.04 | 0.04 | 95 | 1010.9 |
| 20260904004537 | 68 | 128 | 0.0 | 0.0 | 0.00 | 0.04 | 0.04 | 95 | 1010.8 |
| 20260904004034 | 68 | 128 | 0.0 | 1.0 | 0.00 | 0.04 | 0.04 | 95 | 1010.8 |
| 20260904003535 | 68 | 129 | 0.0 | 1.0 | 0.00 | 0.04 | 0.04 | 94 | 1010.9 |
| 20260904003034 | 68 | 129 | 0.0 | 0.0 | 0.00 | 0.04 | 0.04 | 94 | 1010.8 |
| 20260904002534 | 68 | 129 | 0.0 | 0.0 | 0.00 | 0.04 | 0.04 | 94 | 1010.7 |
| 20260904002034 | 68 | 128 | 0.0 | 0.0 | 0.00 | 0.04 | 0.04 | 94 | 1010.7 |
| 20260904001534 | 68 | 128 | 0.0 | 0.0 | 0.00 | 0.04 | 0.04 | 94 | 1010.6 |
| 20260904001034 | 68 | 128 | 0.0 | 0.0 | 0.00 | 0.04 | 0.04 | 94 | 1010.5 |
| 20260904000533 | 68 | 128 | 0.0 | 0.0 | 0.00 | 0.04 | 0.04 | 94 | 1010.4 |
| 20260904000032 | 68 | 128 | 0.0 | 0.0 | 0.00 | 0.04 | 0.04 | 94 | 1010.2 |
| 20260903235531 | 68 | 129 | 0.0 | 0.0 | 0.00 | 0.04 | 0.04 | 94 | 1010.3 |
| 20260903235035 | 69 | 129 | 0.0 | 0.0 | 0.00 | 0.04 | 0.04 | 93 | 1010.4 |
| 20260903234531 | 69 | 128 | 0.0 | 0.0 | 0.00 | 0.04 | 0.04 | 93 | 1010.4 |
| 20260903234030 | 69 | 128 | 0.0 | 0.0 | 0.00 | 0.04 | 0.04 | 93 | 1010.4 |
| 20260903233533 | 69 | 128 | 0.0 | 0.0 | 0.00 | 0.04 | 0.04 | 93 | 1010.2 |
| 20260903233034 | 69 | 128 | 0.0 | 0.0 | 0.00 | 0.04 | 0.04 | 93 | 1010.2 |
| 20260903232529 | 69 | 128 | 0.0 | 0.0 | 0.00 | 0.04 | 0.04 | 93 | 1010.2 |
| 20260903232030 | 70 | 128 | 0.0 | 0.0 | 0.00 | 0.04 | 0.04 | 93 | 1010.2 |
| 20260903231528 | 70 | 128 | 0.0 | 0.0 | 0.00 | 0.04 | 0.04 | 93 | 1010.3 |
| 20260903231028 | 70 | 128 | 0.0 | 0.0 | 0.00 | 0.04 | 0.04 | 92 | 1010.4 |
| 20260903230528 | 70 | 129 | 0.0 | 0.0 | 0.00 | 0.04 | 0.04 | 92 | 1010.4 |
| 20260903230036 | 70 | 129 | 0.0 | 0.0 | 0.00 | 0.04 | 0.04 | 92 | 1010.6 |
| 20260903225529 | 70 | 129 | 0.0 | 0.0 | 0.00 | 0.04 | 0.04 | 92 | 1010.5 |
| 20260903225028 | 71 | 129 | 0.0 | 0.0 | 0.00 | 0.04 | 0.04 | 92 | 1010.4 |
| 20260903224528 | 71 | 129 | 0.0 | 1.0 | 0.00 | 0.04 | 0.04 | 92 | 1010.3 |
| 20260903224032 | 71 | 128 | 0.0 | 1.0 | 0.00 | 0.04 | 0.04 | 91 | 1010.3 |
| 20260903223527 | 71 | 129 | 0.0 | 1.0 | 0.00 | 0.04 | 0.04 | 91 | 1010.3 |
| 20260903223026 | 71 | 128 | 0.0 | 0.0 | 0.00 | 0.04 | 0.04 | 91 | 1010.3 |
| 20260903222529 | 71 | 129 | 0.0 | 0.0 | 0.00 | 0.04 | 0.04 | 91 | 1010.5 |